CW7529 Weather Reports


Display with metric or nautical units.
time (UTC)temp
F
wind
direction
speed
MPH
gust
MPH
rain 1hr
in
rain 24hr
in
rain mn
in
humidity
%
barometer
mb
20181016010630 38 235 0.0 2.0 0.00 0.00 0.00 70 1024.7
20181016010123 38 229 1.0 2.0 0.00 0.00 0.00 70 1024.7
20181016005616 38 234 1.0 2.0 0.00 0.00 0.00 71 1024.7
20181016005107 39 234 0.0 0.0 0.00 0.00 0.00 71 1025.1
20181016004559 39 244 0.0 1.0 0.00 0.00 0.00 69 1024.7
20181016004053 39 229 0.0 2.0 0.00 0.00 0.00 67 1024.7
20181016003544 40 229 0.0 2.0 0.00 0.00 0.00 66 1024.7
20181016003036 40 231 0.0 2.0 0.00 0.00 0.00 66 1024.7
20181016002530 40 228 1.0 2.0 0.00 0.00 0.00 65 1024.7
20181016002021 40 238 1.0 2.0 0.00 0.00 0.00 66 1024.7
20181016001513 41 236 0.0 2.0 0.00 0.00 0.00 64 1024.7
20181016001006 41 232 0.0 1.0 0.00 0.00 0.00 64 1024.7
20181016000502 41 242 0.0 2.0 0.00 0.00 0.00 63 1024.7
20181015235951 42 239 1.0 2.0 0.00 0.00 0.00 62 1024.4
20181015235442 42 225 1.0 2.0 0.00 0.00 0.00 61 1024.4
20181015234935 43 236 0.0 3.0 0.00 0.00 0.00 60 1024.1
20181015234424 43 241 0.0 3.0 0.00 0.00 0.00 59 1024.1
20181015233915 44 214 1.0 4.0 0.00 0.00 0.00 58 1024.1
20181015233406 45 244 2.0 4.0 0.00 0.00 0.00 56 1024.1
20181015232856 45 241 3.0 4.0 0.00 0.00 0.00 55 1024.4
20181015232351 46 231 1.0 6.0 0.00 0.00 0.00 53 1024.1
20181015231846 46 252 1.0 6.0 0.00 0.00 0.00 53 1024.4
20181015231344 47 259 2.0 6.0 0.00 0.00 0.00 51 1024.4
20181015230838 47 239 2.0 7.0 0.00 0.00 0.00 50 1024.4
20181015230336 47 230 1.0 8.0 0.00 0.00 0.00 48 1024.4
20181015225834 47 265 1.0 8.0 0.00 0.00 0.00 48 1024.4
20181015225336 47 249 2.0 8.0 0.00 0.00 0.00 46 1024.7
20181015224829 48 226 4.0 8.0 0.00 0.00 0.00 46 1024.4
20181015224326 48 230 2.0 9.0 0.00 0.00 0.00 47 1024.4
20181015223814 48 249 4.0 9.0 0.00 0.00 0.00 46 1024.1
20181015223257 48 241 2.0 10.0 0.00 0.00 0.00 46 1024.4
20181015222731 48 260 3.0 13.0 0.00 0.00 0.00 47 1024.4
20181015222207 48 239 2.0 13.0 0.00 0.01 0.00 45 1024.7
20181015221659 48 256 5.0 11.0 0.00 0.01 0.00 45 1024.4
20181015221150 48 249 7.0 11.0 0.00 0.01 0.00 44 1024.7
20181015220647 48 272 4.0 9.0 0.00 0.01 0.00 43 1024.7
20181015220135 48 280 3.0 10.0 0.00 0.01 0.00 43 1024.7
20181015215627 49 242 2.0 10.0 0.00 0.01 0.00 47 1024.7
20181015215126 49 255 7.0 11.0 0.00 0.01 0.00 44 1024.7
20181015214618 49 292 6.0 11.0 0.00 0.01 0.00 45 1024.7
20181015214115 49 283 5.0 10.0 0.00 0.01 0.00 43 1024.7
20181015213611 49 279 5.0 9.0 0.00 0.01 0.00 44 1024.7
20181015213047 48 280 2.0 11.0 0.00 0.01 0.00 45 1024.7
20181015212545 48 225 7.0 11.0 0.00 0.01 0.00 47 1024.4
20181015212029 48 266 3.0 13.0 0.00 0.01 0.00 46 1024.7
20181015211508 48 294 9.0 13.0 0.00 0.02 0.00 44 1024.7
20181015210953 48 273 4.0 9.0 0.00 0.02 0.00 46 1025.1
20181015210448 48 235 6.0 11.0 0.00 0.02 0.00 45 1025.1
20181015205940 48 290 8.0 14.0 0.00 0.02 0.00 46 1024.7
20181015205434 48 297 4.0 14.0 0.00 0.02 0.00 47 1024.7
20181015204933 48 263 7.0 13.0 0.00 0.03 0.00 46 1024.7
20181015204413 48 306 8.0 13.0 0.00 0.03 0.00 45 1025.1
20181015203904 47 287 6.0 13.0 0.00 0.03 0.00 45 1025.1
20181015203406 47 285 4.0 13.0 0.00 0.04 0.00 45 1025.1
20181015202902 47 349 5.0 13.0 0.00 0.04 0.00 46 1025.1
20181015202356 47 219 7.0 13.0 0.00 0.04 0.00 47 1025.1
20181015201851 47 285 9.0 11.0 0.00 0.05 0.00 47 1025.1
20181015201350 47 292 5.0 13.0 0.00 0.05 0.00 47 1025.4
20181015200850 46 300 5.0 13.0 0.00 0.06 0.00 48 1025.4
20181015200347 46 288 5.0 14.0 0.00 0.06 0.00 50 1025.4
20181015195840 46 274 4.0 14.0 0.00 0.06 0.00 49 1025.4
20181015195323 46 277 4.0 10.0 0.00 0.06 0.00 47 1025.4
20181015194817 46 225 5.0 10.0 0.00 0.06 0.00 51 1025.4
20181015194256 46 33 4.0 10.0 0.00 0.06 0.00 49 1025.4
20181015193751 46 330 5.0 13.0 0.00 0.06 0.00 48 1025.4
20181015193249 46 277 5.0 14.0 0.00 0.06 0.00 51 1025.8
20181015192731 46 257 5.0 15.0 0.00 0.06 0.00 56 1025.8
20181015192228 46 287 5.0 15.0 0.00 0.06 0.00 51 1025.8
20181015191727 46 262 9.0 14.0 0.00 0.06 0.00 50 1025.8
20181015191224 46 315 4.0 10.0 0.00 0.06 0.00 50 1025.8
20181015190716 45 281 3.0 10.0 0.00 0.06 0.00 50 1025.8
20181015190207 45 327 6.0 11.0 0.00 0.06 0.00 51 1026.1
20181015185705 45 251 4.0 11.0 0.00 0.06 0.00 48 1026.1
20181015185203 45 279 6.0 13.0 0.00 0.06 0.00 50 1026.1
20181015184659 44 296 4.0 13.0 0.00 0.06 0.00 52 1026.1
20181015184153 44 300 5.0 9.0 0.00 0.06 0.00 53 1026.1
20181015183650 44 226 5.0 11.0 0.00 0.06 0.00 54 1026.5
20181015183146 44 273 8.0 11.0 0.00 0.06 0.00 55 1026.5
20181015182638 44 298 3.0 11.0 0.00 0.06 0.00 55 1026.5
20181015182133 43 259 9.0 13.0 0.00 0.06 0.00 52 1026.5
20181015181629 43 307 3.0 13.0 0.00 0.06 0.00 57 1026.5
20181015181123 43 359 6.0 13.0 0.00 0.06 0.00 54 1026.9
20181015180618 43 293 6.0 14.0 0.00 0.06 0.00 55 1026.5
20181015180111 43 311 8.0 14.0 0.00 0.06 0.00 55 1026.5
20181015175614 43 304 6.0 11.0 0.00 0.06 0.00 54 1026.9
20181015175113 43 203 7.0 13.0 0.00 0.06 0.00 57 1026.9
20181015174601 42 310 6.0 13.0 0.00 0.06 0.00 57 1026.9
20181015174057 42 244 7.0 11.0 0.00 0.06 0.00 57 1026.9
20181015173555 42 298 6.0 11.0 0.00 0.06 0.00 59 1026.9
20181015173048 42 328 6.0 11.0 0.00 0.06 0.00 59 1026.9
20181015172548 42 336 4.0 14.0 0.00 0.06 0.00 54 1027.2
20181015172043 42 330 5.0 14.0 0.00 0.06 0.00 59 1027.2
20181015171537 42 308 6.0 14.0 0.00 0.06 0.00 57 1027.2
20181015171031 42 354 6.0 13.0 0.00 0.06 0.00 56 1027.2
20181015170527 41 342 5.0 10.0 0.00 0.06 0.00 55 1026.9
20181015170022 41 300 3.0 13.0 0.00 0.06 0.00 64 1026.9
20181015165517 41 337 6.0 13.0 0.00 0.06 0.00 56 1027.2
20181015165019 41 349 9.0 10.0 0.00 0.06 0.00 57 1027.2
20181015164515 41 268 7.0 13.0 0.00 0.06 0.00 56 1026.9
20181015164014 41 320 9.0 13.0 0.00 0.06 0.00 57 1026.9
20181015163515 41 340 5.0 13.0 0.00 0.06 0.00 60 1026.9
20181015163006 41 314 5.0 13.0 0.00 0.06 0.00 58 1026.9
20181015162501 40 326 9.0 11.0 0.00 0.06 0.00 58 1026.9
20181015161957 40 343 6.0 13.0 0.00 0.06 0.00 58 1026.9
20181015161449 40 316 8.0 13.0 0.00 0.06 0.00 56 1026.9
20181015160947 40 309 5.0 11.0 0.00 0.06 0.00 59 1026.9
20181015160444 40 266 10.0 11.0 0.00 0.06 0.00 57 1027.2
20181015155942 40 5 7.0 13.0 0.00 0.06 0.00 59 1026.9
20181015155440 39 329 5.0 13.0 0.00 0.06 0.00 61 1026.9
20181015154940 39 301 6.0 13.0 0.00 0.06 0.00 60 1026.9
20181015154436 39 336 8.0 15.0 0.00 0.06 0.00 60 1027.2
20181015153935 39 286 6.0 15.0 0.00 0.06 0.00 60 1026.9
20181015153437 39 333 10.0 13.0 0.00 0.06 0.00 61 1026.9
20181015152931 38 310 7.0 10.0 0.00 0.06 0.00 61 1026.9
20181015152427 38 298 5.0 14.0 0.00 0.06 0.00 64 1026.9
20181015151920 38 331 5.0 14.0 0.00 0.06 0.00 63 1026.9
20181015151413 38 292 6.0 14.0 0.00 0.06 0.00 65 1026.9
20181015150901 38 297 8.0 14.0 0.00 0.06 0.00 64 1026.9
20181015150401 37 292 10.0 14.0 0.00 0.06 0.00 65 1026.9
20181015145856 37 298 7.0 11.0 0.00 0.06 0.00 65 1026.5
20181015145320 37 309 5.0 11.0 0.00 0.06 0.00 67 1026.9
20181015144753 37 318 6.0 13.0 0.00 0.06 0.00 69 1026.5
20181015144244 37 284 5.0 14.0 0.00 0.06 0.00 69 1026.5
20181015143735 37 278 8.0 14.0 0.00 0.06 0.00 66 1026.5
20181015143226 36 285 2.0 10.0 0.00 0.06 0.00 70 1026.5
20181015142721 36 291 8.0 10.0 0.00 0.06 0.00 71 1026.5
20181015142216 35 295 4.0 11.0 0.00 0.06 0.00 72 1026.5
20181015141715 35 305 4.0 13.0 0.00 0.06 0.00 72 1026.5
20181015141214 35 311 7.0 13.0 0.00 0.06 0.00 72 1026.5
20181015140714 35 330 6.0 10.0 0.00 0.06 0.00 74 1026.5
20181015140212 35 274 4.0 10.0 0.00 0.06 0.00 74 1026.5
20181015135707 35 324 4.0 10.0 0.00 0.06 0.00 75 1026.5
20181015135157 34 264 5.0 9.0 0.00 0.06 0.00 75 1026.5
20181015134656 34 276 2.0 9.0 0.00 0.06 0.00 78 1026.1
20181015134148 34 297 3.0 8.0 0.00 0.06 0.00 79 1026.1
20181015133639 34 273 4.0 8.0 0.00 0.06 0.00 78 1026.1
20181015133140 34 309 7.0 9.0 0.00 0.06 0.00 78 1026.1
20181015132627 33 277 2.0 9.0 0.00 0.06 0.00 80 1025.8
20181015132118 33 312 6.0 10.0 0.00 0.06 0.00 79 1026.1
20181015131610 33 284 7.0 10.0 0.00 0.06 0.00 79 1026.1
20181015131110 33 331 5.0 9.0 0.00 0.06 0.00 81 1025.8
20181015130610 32 244 5.0 7.0 0.00 0.06 0.00 84 1025.8
20181015130109 32 255 2.0 6.0 0.00 0.06 0.00 85 1025.8
20181015125610 32 277 3.0 6.0 0.00 0.06 0.00 87 1025.8
20181015125110 32 270 2.0 6.0 0.00 0.06 0.00 88 1025.4
20181015124608 31 283 3.0 4.0 0.00 0.06 0.00 89 1025.4
20181015124059 31 280 2.0 3.0 0.00 0.06 0.00 90 1025.4
20181015123559 31 275 2.0 3.0 0.00 0.06 0.00 91 1025.4
20181015123051 31 256 1.0 2.0 0.00 0.06 0.00 92 1025.4
20181015122544 31 270 1.0 3.0 0.00 0.06 0.00 92 1025.1
20181015122034 31 263 2.0 3.0 0.00 0.06 0.00 93 1025.4
20181015121526 31 266 0.0 2.0 0.00 0.06 0.00 93 1025.1
20181015121020 31 268 1.0 3.0 0.00 0.06 0.00 93 1025.1
20181015120510 30 269 2.0 3.0 0.00 0.06 0.00 93 1025.1
20181015120002 30 275 1.0 2.0 0.00 0.06 0.00 93 1025.1
20181015115457 30 265 2.0 2.0 0.00 0.06 0.00 93 1025.1
20181015114947 30 254 0.0 3.0 0.00 0.06 0.00 93 1025.1
20181015114440 30 247 1.0 3.0 0.00 0.06 0.00 93 1024.7
20181015113933 30 259 0.0 3.0 0.00 0.06 0.00 93 1024.7
20181015113423 30 281 2.0 4.0 0.00 0.06 0.00 93 1024.7
20181015112916 30 282 3.0 4.0 0.00 0.06 0.00 93 1024.7
20181015112410 30 269 1.0 3.0 0.00 0.06 0.00 93 1024.7
20181015111900 30 275 2.0 3.0 0.00 0.06 0.00 93 1024.7
20181015111353 30 274 1.0 2.0 0.00 0.06 0.00 93 1024.7
20181015110847 30 274 1.0 3.0 0.00 0.06 0.00 92 1024.7
20181015110337 30 270 1.0 4.0 0.00 0.06 0.00 92 1024.7
20181015105828 30 272 1.0 4.0 0.00 0.06 0.00 92 1024.4
20181015105324 30 288 2.0 4.0 0.00 0.06 0.00 92 1024.7
20181015104815 31 246 0.0 4.0 0.00 0.06 0.00 91 1024.4
20181015104308 31 254 2.0 6.0 0.00 0.06 0.00 91 1024.7
20181015103802 31 273 2.0 6.0 0.00 0.06 0.00 91 1024.7
20181015103252 31 240 0.0 4.0 0.00 0.06 0.00 91 1024.4
20181015102744 31 250 1.0 4.0 0.00 0.06 0.00 91 1024.4
20181015102237 31 287 1.0 4.0 0.00 0.06 0.00 91 1024.4
20181015101728 31 272 1.0 6.0 0.00 0.06 0.00 90 1024.4
20181015101220 31 274 1.0 6.0 0.00 0.06 0.00 90 1024.1
20181015100713 31 277 2.0 4.0 0.00 0.06 0.00 90 1024.1
20181015100204 32 292 3.0 4.0 0.00 0.06 0.00 90 1024.4
20181015095655 32 278 3.0 4.0 0.00 0.06 0.00 90 1024.4
20181015095148 32 275 3.0 4.0 0.00 0.06 0.00 89 1024.4
20181015094638 32 277 1.0 4.0 0.00 0.06 0.00 89 1024.1
20181015094129 32 318 2.0 6.0 0.00 0.06 0.00 89 1024.1
20181015093623 32 295 3.0 7.0 0.00 0.06 0.00 89 1024.1
20181015093114 32 278 4.0 7.0 0.00 0.06 0.00 88 1024.1
20181015092606 32 307 5.0 7.0 0.00 0.06 0.00 88 1024.1
20181015092100 32 287 4.0 6.0 0.00 0.06 0.00 88 1024.1
20181015091551 32 294 2.0 6.0 0.00 0.06 0.00 88 1024.4
20181015091042 32 256 2.0 7.0 0.00 0.06 0.00 88 1024.4
20181015090537 32 274 1.0 7.0 0.00 0.06 0.00 88 1024.4
20181015090026 32 269 2.0 6.0 0.00 0.06 0.00 88 1024.4
20181015085519 33 281 2.0 6.0 0.00 0.06 0.00 88 1024.1
20181015085013 33 271 2.0 7.0 0.00 0.06 0.00 88 1024.1
20181015084503 33 287 2.0 7.0 0.00 0.06 0.00 87 1024.1
20181015083956 33 283 2.0 7.0 0.00 0.06 0.00 86 1024.1
20181015083449 33 307 3.0 7.0 0.00 0.06 0.00 86 1024.4
20181015082940 33 275 4.0 7.0 0.00 0.06 0.00 86 1024.4
20181015082432 33 294 4.0 7.0 0.00 0.06 0.00 86 1024.4
20181015081925 33 299 3.0 8.0 0.00 0.06 0.00 86 1024.4
20181015081416 33 276 2.0 10.0 0.00 0.06 0.00 86 1024.1
20181015080908 34 347 7.0 10.0 0.00 0.06 0.00 86 1024.1
20181015080402 34 310 4.0 9.0 0.00 0.06 0.00 86 1024.1
20181015075853 34 295 4.0 7.0 0.00 0.06 0.00 86 1024.4
20181015075345 34 290 5.0 7.0 0.00 0.06 0.00 87 1024.4
20181015074838 34 316 3.0 7.0 0.00 0.06 0.00 86 1024.4
20181015074328 34 291 3.0 4.0 0.00 0.06 0.00 86 1024.4
20181015073820 34 341 2.0 9.0 0.00 0.06 0.00 86 1024.4
20181015073314 34 322 5.0 9.0 0.00 0.06 0.00 86 1024.1
20181015072805 34 347 4.0 11.0 0.00 0.06 0.00 86 1024.1
20181015072257 34 307 4.0 8.0 0.00 0.06 0.00 86 1024.1
20181015071749 34 328 4.0 8.0 0.00 0.06 0.00 86 1024.4
20181015071241 34 329 4.0 11.0 0.00 0.06 0.00 86 1024.1
20181015070732 34 313 5.0 11.0 0.00 0.06 0.00 85 1024.4
20181015070227 34 311 4.0 9.0 0.00 0.06 0.00 86 1024.1
20181015065717 34 329 5.0 9.0 0.00 0.06 0.00 85 1024.1
20181015065209 34 283 5.0 9.0 0.00 0.06 0.00 85 1024.1
20181015064704 34 326 6.0 7.0 0.00 0.06 0.00 86 1024.1
20181015064154 34 293 3.0 7.0 0.00 0.06 0.00 86 1024.1
20181015063646 34 303 5.0 9.0 0.00 0.06 0.00 86 1024.1
20181015063139 34 326 6.0 9.0 0.00 0.06 0.00 86 1024.1
20181015062631 34 311 4.0 8.0 0.00 0.06 0.00 87 1024.1
20181015062123 34 313 4.0 10.0 0.00 0.06 0.00 87 1023.7
20181015061617 34 315 4.0 10.0 0.00 0.06 0.00 86 1024.1
20181015061108 34 288 2.0 8.0 0.00 0.06 0.00 87 1023.7
20181015060600 34 333 6.0 11.0 0.00 0.06 0.00 87 1023.7
20181015060054 34 326 6.0 11.0 0.00 0.06 0.00 87 1023.7
20181015055545 34 335 1.0 8.0 0.00 0.06 0.00 88 1023.7
20181015055037 35 299 6.0 11.0 0.00 0.06 0.00 88 1023.7
20181015054531 35 319 5.0 11.0 0.00 0.06 0.00 88 1024.1
20181015054022 35 312 4.0 7.0 0.00 0.06 0.00 89 1024.1
20181015053513 35 331 4.0 7.0 0.00 0.06 0.00 90 1023.7
20181015053008 35 279 4.0 7.0 0.00 0.06 0.00 89 1024.1
20181015052459 34 302 3.0 7.0 0.00 0.06 0.00 89 1024.1
20181015051951 34 304 4.0 7.0 0.00 0.06 0.00 90 1023.7
20181015051444 34 288 1.0 6.0 0.00 0.06 0.00 91 1023.7
20181015050935 34 298 2.0 7.0 0.00 0.06 0.00 90 1023.4
20181015050427 34 292 3.0 7.0 0.00 0.06 0.00 90 1023.7
20181015045922 34 296 3.0 8.0 0.00 0.06 0.06 90 1023.4
20181015045412 34 273 4.0 8.0 0.00 0.06 0.06 90 1023.7
20181015044904 34 301 3.0 6.0 0.00 0.06 0.06 91 1023.4
20181015044357 34 250 1.0 6.0 0.00 0.06 0.06 91 1023.4
20181015043848 34 272 2.0 6.0 0.00 0.06 0.06 91 1023.4
20181015043340 34 292 2.0 7.0 0.00 0.06 0.06 91 1023.4
20181015042833 34 277 3.0 7.0 0.00 0.06 0.06 91 1023.4
20181015042325 34 279 3.0 6.0 0.00 0.06 0.06 91 1023.0
20181015041816 34 301 3.0 7.0 0.00 0.06 0.06 91 1023.0
20181015041310 34 305 4.0 7.0 0.00 0.06 0.06 91 1023.0
20181015040801 34 324 2.0 6.0 0.00 0.06 0.06 91 1023.0
20181015040252 34 324 2.0 6.0 0.00 0.06 0.06 91 1023.0
20181015035747 34 282 3.0 4.0 0.00 0.06 0.06 91 1023.0
20181015035237 34 303 2.0 4.0 0.00 0.06 0.06 91 1022.7
20181015034729 34 309 2.0 6.0 0.00 0.06 0.06 91 1022.7
20181015034222 34 287 3.0 6.0 0.00 0.06 0.06 90 1023.0
20181015033713 34 311 3.0 4.0 0.00 0.06 0.06 91 1022.7
20181015033204 34 289 2.0 4.0 0.00 0.06 0.06 91 1022.7
20181015032657 34 296 3.0 6.0 0.00 0.06 0.06 91 1022.7
20181015032148 34 288 3.0 6.0 0.00 0.06 0.06 91 1022.3
20181015031640 34 330 3.0 4.0 0.00 0.06 0.06 91 1022.3
20181015031133 34 291 1.0 4.0 0.00 0.06 0.06 91 1022.7
20181015030624 34 324 3.0 4.0 0.00 0.06 0.06 90 1022.3
20181015030116 34 324 2.0 6.0 0.00 0.06 0.06 90 1021.9
20181015025609 34 319 2.0 8.0 0.00 0.06 0.06 90 1022.3
20181015025100 34 328 3.0 8.0 0.00 0.06 0.06 90 1021.6
20181015024553 34 336 3.0 4.0 0.00 0.06 0.06 90 1021.9
20181015024045 34 330 3.0 6.0 0.00 0.06 0.06 90 1021.9
20181015023536 34 347 2.0 7.0 0.00 0.06 0.06 90 1021.9
20181015023026 34 330 3.0 7.0 0.00 0.06 0.06 90 1021.9
20181015022520 34 328 4.0 7.0 0.00 0.06 0.06 90 1021.9
20181015022011 34 345 4.0 8.0 0.00 0.06 0.06 90 1021.6
20181015021502 34 355 4.0 8.0 0.00 0.06 0.06 90 1021.6
20181015020955 34 338 4.0 13.0 0.00 0.06 0.06 90 1021.9
20181015020446 34 347 5.0 13.0 0.00 0.06 0.06 89 1021.6
20181015015938 34 337 9.0 11.0 0.00 0.06 0.06 89 1021.9
20181015015432 34 336 4.0 11.0 0.00 0.06 0.06 89 1021.6
20181015014922 34 344 4.0 11.0 0.00 0.06 0.06 89 1021.9
20181015014414 34 343 5.0 11.0 0.00 0.06 0.06 89 1021.9
20181015013908 34 341 6.0 11.0 0.00 0.06 0.06 89 1022.3
20181015013359 34 314 4.0 11.0 0.00 0.06 0.06 90 1021.9
20181015012851 34 23 3.0 11.0 0.00 0.06 0.06 90 1021.6
20181015012343 34 358 7.0 11.0 0.00 0.06 0.06 90 1021.6
20181015011833 34 353 5.0 9.0 0.00 0.06 0.06 90 1021.6
20181015011326 34 329 4.0 10.0 0.00 0.06 0.06 90 1021.6
20181015010819 34 3 6.0 9.0 0.00 0.06 0.06 91 1021.2